[TLELIST] Archives

 

[TLELIST] Current TLEs

November 27th 2024 PST

HST 1 20580U 90037B 24331.43430947 .00014151 00000-0 60502-3 0 9999 2 20580 28.4700 335.4459 0001950 14.3475 345.7174 15.21335899701735 ISS (ZARYA) 1 25544U 98067A 24331.87655469 .00024111 00000-0 43016-3 0 9999 2 25544 51.6385 229.3849 0006823 271.5434 88.4773 15.49914286483788 CXO 1 25867U 99040B 24334.45791181 .00000576 00000-0 00000-0 0 9990 2 25867 44.9190 140.8890 8705655 304.6221 359.9348 0.37810679 15188 ...Continue Reading

[TLELIST] Current TLEs

November 27th 2024 PST

HST 1 20580U 90037B 24331.43430947 .00014151 00000-0 60502-3 0 9999 2 20580 28.4700 335.4459 0001950 14.3475 345.7174 15.21335899701735 ISS (ZARYA) 1 25544U 98067A 24331.87655469 .00024111 00000-0 43016-3 0 9999 2 25544 51.6385 229.3849 0006823 271.5434 88.4773 15.49914286483788 CXO 1 25867U 99040B 24334.45791181 .00000576 00000-0 00000-0 0 9990 2 25867 44.9190 140.8890 8705655 304.6221 359.9348 0.37810679 15188 ...Continue Reading

[TLELIST] Current TLEs

November 26th 2024 PST

HST 1 20580U 90037B 24330.45029548 .00013654 00000-0 58393-3 0 9993 2 20580 28.4701 342.0751 0001956 3.1043 356.9563 15.21309106701589 ISS (ZARYA) 1 25544U 98067A 24331.10282021 .00027503 00000-0 48999-3 0 9998 2 25544 51.6387 233.2172 0006803 269.0972 90.9237 15.49876734483665 CXO 1 25867U 99040B 24331.81436005 .00000537 00000-0 00000-0 0 9995 2 25867 44.8865 141.0157 8710623 304.5637 0.0224 0.37812761 15176 ...Continue Reading

[TLELIST] Current TLEs

November 26th 2024 PST

HST 1 20580U 90037B 24330.45029548 .00013654 00000-0 58393-3 0 9993 2 20580 28.4701 342.0751 0001956 3.1043 356.9563 15.21309106701589 ISS (ZARYA) 1 25544U 98067A 24331.10282021 .00027503 00000-0 48999-3 0 9998 2 25544 51.6387 233.2172 0006803 269.0972 90.9237 15.49876734483665 CXO 1 25867U 99040B 24331.81436005 .00000537 00000-0 00000-0 0 9995 2 25867 44.8865 141.0157 8710623 304.5637 0.0224 0.37812761 15176 ...Continue Reading

[TLELIST] Current TLEs

November 26th 2024 PST

HST 1 20580U 90037B 24330.45029548 .00013654 00000-0 58393-3 0 9993 2 20580 28.4701 342.0751 0001956 3.1043 356.9563 15.21309106701589 ISS (ZARYA) 1 25544U 98067A 24331.10282021 .00027503 00000-0 48999-3 0 9998 2 25544 51.6387 233.2172 0006803 269.0972 90.9237 15.49876734483665 CXO 1 25867U 99040B 24331.81436005 .00000537 00000-0 00000-0 0 9995 2 25867 44.8865 141.0157 8710623 304.5637 0.0224 0.37812761 15176 ...Continue Reading

[TLELIST] Current TLEs

November 25th 2024 PST

HST 1 20580U 90037B 24329.46626437 .00012026 00000-0 51378-3 0 9990 2 20580 28.4702 348.7040 0001950 352.3012 7.7552 15.21283662701434 ISS (ZARYA) 1 25544U 98067A 24330.07117961 .00026376 00000-0 46825-3 0 9996 2 25544 51.6388 238.3275 0007609 264.6284 95.3837 15.49995637483500 CXO 1 25867U 99040B 24331.81436005 .00000537 00000-0 00000-0 0 9995 2 25867 44.8865 141.0157 8710623 304.5637 0.0224 0.37812761 15176 ...Continue Reading

[TLELIST] Current TLEs

November 24th 2024 PST

HST 1 20580U 90037B 24328.48221780 .00011556 00000-0 49373-3 0 9992 2 20580 28.4703 355.3323 0001875 340.7552 19.2970 15.21259814701545 ISS (ZARYA) 1 25544U 98067A 24329.05341111 .00026433 00000-0 47041-3 0 9993 2 25544 51.6412 243.3639 0007500 262.4319 174.7808 15.49925942483347 CXO 1 25867U 99040B 24331.81436005 .00000537 00000-0 00000+0 0 9994 2 25867 44.8865 141.0157 8710623 304.5637 0.0224 0.37812761 26336 ...Continue Reading

[TLELIST] Current TLEs

November 24th 2024 PST

HST 1 20580U 90037B 24328.48221780 .00011556 00000-0 49373-3 0 9992 2 20580 28.4703 355.3323 0001875 340.7552 19.2970 15.21259814701545 ISS (ZARYA) 1 25544U 98067A 24329.05341111 .00026433 00000-0 47041-3 0 9993 2 25544 51.6412 243.3639 0007500 262.4319 174.7808 15.49925942483347 CXO 1 25867U 99040B 24331.81436005 .00000537 00000-0 00000+0 0 9994 2 25867 44.8865 141.0157 8710623 304.5637 0.0224 0.37812761 26336 ...Continue Reading

[TLELIST] Current TLEs

November 23rd 2024 PST

HST 1 20580U 90037B 24327.49815618 .00010909 00000-0 46592-3 0 9992 2 20580 28.4703 1.9607 0001819 329.4371 30.6117 15.21237446701137 ISS (ZARYA) 1 25544U 98067A 24328.29153615 .00029143 00000-0 51837-3 0 9997 2 25544 51.6408 247.1413 0007321 258.8281 244.5643 15.49886778483225 CXO 1 25867U 99040B 24329.16916176 .00000541 00000-0 00000+0 0 9996 2 25867 44.8372 141.1682 8716335 304.4807 359.9228 0.37809925 26324 ...Continue Reading

[TLELIST] Current TLEs

November 22nd 2024 PST

HST 1 20580U 90037B 24326.51408065 .00010023 00000-0 42770-3 0 9999 2 20580 28.4703 8.5888 0001788 317.4384 42.6071 15.21216335701245 ISS (ZARYA) 1 25544U 98067A 24327.32451834 .00067688 00000-0 11888-2 0 9991 2 25544 51.6385 251.9356 0007283 257.2930 247.0781 15.49857513483078 CXO 1 25867U 99040B 24329.16916176 .00000541 00000-0 00000+0 0 9996 2 25867 44.8372 141.1682 8716335 304.4807 359.9228 0.37809925 26324 ...Continue Reading
  • This mailing list is a public mailing list - anyone may join or leave, at any time.
  • This mailing list is announce-only.

International Space Station (ISS) / Hubble Space Telescope (HST) / Chandra X-Ray Observatory Orbital Data via EMAIL

Privacy Policy:

Private list